Tracking 20719 objects as of 25-May-2020
HD Live streaming from Space Station
objects crossing your sky now

ANIK C1 R/B(PAM-D)

Track ANIK C1 R/B(PAM-D) now!


NORAD ID: 15644
Int'l Code: 1985-028D
Perigee: 307.1 km
Apogee: 30,306.1 km
Inclination: 23.0 °
Period: 529.4 minutes
Semi major axis: 21677 km
RCS: 2.9686 m2 (large)
Launch date: April 12, 1985
Source: United States (US)
Launch site: AIR FORCE EASTERN TEST RANGE (AFETR)

Note: This is a ROCKET BODY
aabbcc
Your satellite tracking list
Your tracking list is empty




NASA's NSSDC Master Catalog

Two Line Element Set (TLE):
1 15644U 85028D   20144.85740975  .00000753  00000-0  37501-3 0  9993
2 15644  22.9951 117.4724 6919352 289.6504  11.6420  2.72011293325668
Source of the keplerian elements: AFSPC